Year,Month,Day,Hour,Minute,Value (Times are PST for temperature in C)
2014,06,08,00,00,13.10
2014,06,08,00,01,13.10
2014,06,08,00,02,13.00
2014,06,08,00,03,13.00
2014,06,08,00,04,13.00
2014,06,08,00,05,13.00
2014,06,08,00,06,13.00
2014,06,08,00,07,12.90
2014,06,08,00,08,12.90
2014,06,08,00,09,12.90
2014,06,08,00,10,12.90
2014,06,08,00,11,12.90
2014,06,08,00,12,12.90
2014,06,08,00,13,12.90
2014,06,08,00,14,12.90
2014,06,08,00,15,12.80
2014,06,08,00,16,12.80
2014,06,08,00,17,12.80
2014,06,08,00,18,12.80
2014,06,08,00,19,12.80
2014,06,08,00,20,12.80
2014,06,08,00,21,12.80
2014,06,08,00,22,12.80
2014,06,08,00,23,12.70
2014,06,08,00,24,12.70
2014,06,08,00,25,12.70
2014,06,08,00,26,12.70
2014,06,08,00,27,12.70
2014,06,08,00,28,12.70
2014,06,08,00,29,12.70
2014,06,08,00,30,12.70
2014,06,08,00,31,12.70
2014,06,08,00,32,12.70
2014,06,08,00,33,12.60
2014,06,08,00,34,12.60
2014,06,08,00,35,12.60
2014,06,08,00,36,12.60
2014,06,08,00,37,12.60
2014,06,08,00,38,12.60
2014,06,08,00,39,12.60
2014,06,08,00,40,12.50
2014,06,08,00,41,12.50
2014,06,08,00,42,12.50
2014,06,08,00,43,12.50
2014,06,08,00,44,12.50
2014,06,08,00,45,12.50
2014,06,08,00,46,12.40
2014,06,08,00,47,12.40
2014,06,08,00,48,12.40
2014,06,08,00,49,12.40
2014,06,08,00,50,12.30
2014,06,08,00,51,12.30
2014,06,08,00,52,12.30
2014,06,08,00,53,12.30
2014,06,08,00,54,12.30
2014,06,08,00,55,12.20
2014,06,08,00,56,12.20
2014,06,08,00,57,12.20
2014,06,08,00,58,12.20
2014,06,08,00,59,12.20
2014,06,08,01,00,12.10
2014,06,08,01,01,12.10
2014,06,08,01,02,12.10
2014,06,08,01,03,12.10
2014,06,08,01,04,12.10
2014,06,08,01,05,12.00
2014,06,08,01,06,12.00
2014,06,08,01,07,12.00
2014,06,08,01,08,12.00
2014,06,08,01,09,12.00
2014,06,08,01,10,11.90
2014,06,08,01,11,11.90
2014,06,08,01,12,11.90
2014,06,08,01,13,11.90
2014,06,08,01,14,11.90
2014,06,08,01,15,11.90
2014,06,08,01,16,11.90
2014,06,08,01,17,11.90
2014,06,08,01,18,11.90
2014,06,08,01,19,11.90
2014,06,08,01,20,11.90
2014,06,08,01,21,11.90
2014,06,08,01,22,11.90
2014,06,08,01,23,11.90
2014,06,08,01,24,11.90
2014,06,08,01,25,11.90
2014,06,08,01,26,11.90
2014,06,08,01,27,11.80
2014,06,08,01,28,11.80
2014,06,08,01,29,11.80
2014,06,08,01,30,11.80
2014,06,08,01,31,11.80
2014,06,08,01,32,11.80
2014,06,08,01,33,11.80
2014,06,08,01,34,11.80
2014,06,08,01,35,11.70
2014,06,08,01,36,11.70
2014,06,08,01,37,11.70
2014,06,08,01,38,11.70
2014,06,08,01,39,11.70
2014,06,08,01,40,11.70
2014,06,08,01,41,11.60
2014,06,08,01,42,11.60
2014,06,08,01,43,11.60
2014,06,08,01,44,11.60
2014,06,08,01,45,11.60
2014,06,08,01,46,11.60
2014,06,08,01,47,11.60
2014,06,08,01,48,11.50
2014,06,08,01,49,11.50
2014,06,08,01,50,11.50
2014,06,08,01,51,11.50
2014,06,08,01,52,11.50
2014,06,08,01,53,11.50
2014,06,08,01,54,11.40
2014,06,08,01,55,11.40
2014,06,08,01,56,11.40
2014,06,08,01,57,11.40
2014,06,08,01,58,11.40
2014,06,08,01,59,11.40
2014,06,08,02,00,11.40
2014,06,08,02,01,11.30
2014,06,08,02,02,11.30
2014,06,08,02,03,11.30
2014,06,08,02,04,11.30
2014,06,08,02,05,11.30
2014,06,08,02,06,11.30
2014,06,08,02,07,11.20
2014,06,08,02,08,11.20
2014,06,08,02,09,11.20
2014,06,08,02,10,11.20
2014,06,08,02,11,11.20
2014,06,08,02,12,11.10
2014,06,08,02,13,11.10
2014,06,08,02,14,11.10
2014,06,08,02,15,11.10
2014,06,08,02,16,11.10
2014,06,08,02,17,11.10
2014,06,08,02,18,11.10
2014,06,08,02,19,11.10
2014,06,08,02,20,11.10
2014,06,08,02,21,11.00
2014,06,08,02,22,11.00
2014,06,08,02,23,11.10
2014,06,08,02,24,11.00
2014,06,08,02,25,11.00
2014,06,08,02,26,11.00
2014,06,08,02,27,11.00
2014,06,08,02,28,11.00
2014,06,08,02,29,11.00
2014,06,08,02,30,11.00
2014,06,08,02,31,10.90
2014,06,08,02,32,10.90
2014,06,08,02,33,10.90
2014,06,08,02,34,10.90
2014,06,08,02,35,10.90
2014,06,08,02,36,10.90
2014,06,08,02,37,10.90
2014,06,08,02,38,10.80
2014,06,08,02,39,10.80
2014,06,08,02,40,10.80
2014,06,08,02,41,10.80
2014,06,08,02,42,10.80
2014,06,08,02,43,10.80
2014,06,08,02,44,10.80
2014,06,08,02,45,10.80
2014,06,08,02,46,10.80
2014,06,08,02,47,10.80
2014,06,08,02,48,10.80
2014,06,08,02,49,10.80
2014,06,08,02,50,10.70
2014,06,08,02,51,10.70
2014,06,08,02,52,10.70
2014,06,08,02,53,10.70
2014,06,08,02,54,10.70
2014,06,08,02,55,10.70
2014,06,08,02,56,10.70
2014,06,08,02,57,10.70
2014,06,08,02,58,10.70
2014,06,08,02,59,10.70
2014,06,08,03,00,10.70
2014,06,08,03,01,10.70
2014,06,08,03,02,10.70
2014,06,08,03,03,10.70
2014,06,08,03,04,10.70
2014,06,08,03,05,10.70
2014,06,08,03,06,10.70
2014,06,08,03,07,10.70
2014,06,08,03,08,10.70
2014,06,08,03,09,10.70
2014,06,08,03,10,10.70
2014,06,08,03,11,10.60
2014,06,08,03,12,10.60
2014,06,08,03,13,10.60
2014,06,08,03,14,10.60
2014,06,08,03,15,10.60
2014,06,08,03,16,10.60
2014,06,08,03,17,10.60
2014,06,08,03,18,10.60
2014,06,08,03,19,10.60
2014,06,08,03,20,10.60
2014,06,08,03,21,10.60
2014,06,08,03,22,10.60
2014,06,08,03,23,10.60
2014,06,08,03,24,10.60
2014,06,08,03,25,10.60
2014,06,08,03,26,10.60
2014,06,08,03,27,10.70
2014,06,08,03,28,10.70
2014,06,08,03,29,10.70
2014,06,08,03,30,10.70
2014,06,08,03,31,10.70
2014,06,08,03,32,10.70
2014,06,08,03,33,10.70
2014,06,08,03,34,10.70
2014,06,08,03,35,10.70
2014,06,08,03,36,10.70
2014,06,08,03,37,10.70
2014,06,08,03,38,10.60
2014,06,08,03,39,10.60
2014,06,08,03,40,10.60
2014,06,08,03,41,10.60
2014,06,08,03,42,10.60
2014,06,08,03,43,10.60
2014,06,08,03,44,10.60
2014,06,08,03,45,10.60
2014,06,08,03,46,10.60
2014,06,08,03,47,10.60
2014,06,08,03,48,10.60
2014,06,08,03,49,10.60
2014,06,08,03,50,10.60
2014,06,08,03,51,10.60
2014,06,08,03,52,10.60
2014,06,08,03,53,10.60
2014,06,08,03,54,10.60
2014,06,08,03,55,10.60
2014,06,08,03,56,10.60
2014,06,08,03,57,10.60
2014,06,08,03,58,10.60
2014,06,08,03,59,10.60
2014,06,08,04,00,10.60
2014,06,08,04,01,10.60
2014,06,08,04,02,10.60
2014,06,08,04,03,10.60
2014,06,08,04,04,10.60
2014,06,08,04,05,10.60
2014,06,08,04,06,10.60
2014,06,08,04,07,10.60
2014,06,08,04,08,10.50
2014,06,08,04,09,10.50
2014,06,08,04,10,10.50
2014,06,08,04,11,10.50
2014,06,08,04,12,10.50
2014,06,08,04,13,10.50
2014,06,08,04,14,10.50
2014,06,08,04,15,10.50
2014,06,08,04,16,10.40
2014,06,08,04,17,10.50
2014,06,08,04,18,10.50
2014,06,08,04,19,10.50
2014,06,08,04,20,10.50
2014,06,08,04,21,10.50
2014,06,08,04,22,10.50
2014,06,08,04,24,10.50
2014,06,08,04,25,10.50
2014,06,08,04,26,10.50
2014,06,08,04,27,10.50
2014,06,08,04,28,10.50
2014,06,08,04,29,10.50
2014,06,08,04,30,10.50
2014,06,08,04,31,10.50
2014,06,08,04,32,10.50
2014,06,08,04,33,10.50
2014,06,08,04,34,10.50
2014,06,08,04,35,10.50
2014,06,08,04,36,10.50
2014,06,08,04,37,10.60
2014,06,08,04,38,10.60
2014,06,08,04,39,10.60
2014,06,08,04,40,10.60
2014,06,08,04,41,10.60
2014,06,08,04,42,10.70
2014,06,08,04,43,10.70
2014,06,08,04,44,10.70
2014,06,08,04,45,10.70
2014,06,08,04,46,10.70
2014,06,08,04,47,10.70
2014,06,08,04,48,10.70
2014,06,08,04,49,10.70
2014,06,08,04,50,10.70
2014,06,08,04,51,10.70
2014,06,08,04,52,10.60
2014,06,08,04,53,10.60
2014,06,08,04,54,10.60
2014,06,08,04,55,10.60
2014,06,08,04,56,10.60
2014,06,08,04,57,10.60
2014,06,08,04,58,10.60
2014,06,08,04,59,10.60
2014,06,08,05,00,10.60
2014,06,08,05,01,10.60
2014,06,08,05,02,10.60
2014,06,08,05,03,10.60
2014,06,08,05,04,10.60
2014,06,08,05,05,10.60
2014,06,08,05,06,10.60
2014,06,08,05,07,10.60
2014,06,08,05,08,10.60
2014,06,08,05,09,10.60
2014,06,08,05,10,10.60
2014,06,08,05,11,10.60
2014,06,08,05,12,10.60
2014,06,08,05,13,10.60
2014,06,08,05,14,10.60
2014,06,08,05,15,10.60
2014,06,08,05,16,10.60
2014,06,08,05,17,10.60
2014,06,08,05,18,10.60
2014,06,08,05,19,10.60
2014,06,08,05,20,10.60
2014,06,08,05,21,10.60
2014,06,08,05,22,10.60
2014,06,08,05,23,10.60
2014,06,08,05,24,10.60
2014,06,08,05,25,10.60
2014,06,08,05,26,10.60
2014,06,08,05,27,10.60
2014,06,08,05,28,10.60
2014,06,08,05,29,10.60
2014,06,08,05,30,10.60
2014,06,08,05,31,10.60
2014,06,08,05,32,10.60
2014,06,08,05,33,10.60
2014,06,08,05,34,10.60
2014,06,08,05,35,10.60
2014,06,08,05,36,10.60
2014,06,08,05,37,10.60
2014,06,08,05,38,10.60
2014,06,08,05,39,10.60
2014,06,08,05,40,10.60
2014,06,08,05,41,10.60
2014,06,08,05,42,10.60
2014,06,08,05,43,10.60
2014,06,08,05,44,10.60
2014,06,08,05,45,10.60
2014,06,08,05,46,10.60
2014,06,08,05,47,10.70
2014,06,08,05,48,10.70
2014,06,08,05,49,10.70
2014,06,08,05,50,10.70
2014,06,08,05,51,10.70
2014,06,08,05,52,10.70
2014,06,08,05,53,10.70
2014,06,08,05,54,10.70
2014,06,08,05,55,10.70
2014,06,08,05,56,10.70
2014,06,08,05,57,10.70
2014,06,08,05,58,10.70
2014,06,08,05,59,10.70
2014,06,08,06,00,10.70
2014,06,08,06,01,10.80
2014,06,08,06,02,10.80
2014,06,08,06,03,10.80
2014,06,08,06,04,10.80
2014,06,08,06,05,10.80
2014,06,08,06,06,10.90
2014,06,08,06,07,10.90
2014,06,08,06,08,10.90
2014,06,08,06,09,11.00
2014,06,08,06,10,11.00
2014,06,08,06,11,11.00
2014,06,08,06,12,11.10
2014,06,08,06,13,11.10
2014,06,08,06,14,11.10
2014,06,08,06,15,11.10
2014,06,08,06,16,11.10
2014,06,08,06,17,11.20
2014,06,08,06,18,11.20
2014,06,08,06,19,11.20
2014,06,08,06,20,11.20
2014,06,08,06,21,11.20
2014,06,08,06,22,11.20
2014,06,08,06,23,11.30
2014,06,08,06,24,11.30
2014,06,08,06,25,11.30
2014,06,08,06,26,11.30
2014,06,08,06,27,11.30
2014,06,08,06,28,11.40
2014,06,08,06,29,11.40
2014,06,08,06,30,11.40
2014,06,08,06,31,11.40
2014,06,08,06,32,11.50
2014,06,08,06,33,11.50
2014,06,08,06,34,11.50
2014,06,08,06,35,11.50
2014,06,08,06,36,11.60
2014,06,08,06,37,11.60
2014,06,08,06,38,11.60
2014,06,08,06,39,11.60
2014,06,08,06,40,11.70
2014,06,08,06,41,11.70
2014,06,08,06,42,11.70
2014,06,08,06,43,11.80
2014,06,08,06,44,11.80
2014,06,08,06,45,11.80
2014,06,08,06,46,11.90
2014,06,08,06,47,11.90
2014,06,08,06,48,12.00
2014,06,08,06,49,12.00
2014,06,08,06,50,12.00
2014,06,08,06,51,12.00
2014,06,08,06,52,12.00
2014,06,08,06,53,12.10
2014,06,08,06,54,12.10
2014,06,08,06,55,12.10
2014,06,08,06,56,12.10
2014,06,08,06,57,12.10
2014,06,08,06,58,12.10
2014,06,08,06,59,12.10
2014,06,08,07,00,12.10
2014,06,08,07,01,12.10
2014,06,08,07,02,12.20
2014,06,08,07,03,12.20
2014,06,08,07,04,12.20
2014,06,08,07,05,12.20
2014,06,08,07,06,12.30
2014,06,08,07,07,12.30
2014,06,08,07,08,12.30
2014,06,08,07,09,12.40
2014,06,08,07,10,12.40
2014,06,08,07,11,12.50
2014,06,08,07,12,12.60
2014,06,08,07,13,12.70
2014,06,08,07,14,12.70
2014,06,08,07,15,12.80
2014,06,08,07,16,12.80
2014,06,08,07,17,12.90
2014,06,08,07,18,12.90
2014,06,08,07,19,13.00
2014,06,08,07,20,13.00
2014,06,08,07,21,13.10
2014,06,08,07,22,13.10
2014,06,08,07,23,13.10
2014,06,08,07,24,13.20
2014,06,08,07,25,13.20
2014,06,08,07,26,13.20
2014,06,08,07,27,13.30
2014,06,08,07,28,13.30
2014,06,08,07,29,13.40
2014,06,08,07,30,13.40
2014,06,08,07,31,13.40
2014,06,08,07,32,13.50
2014,06,08,07,33,13.50
2014,06,08,07,34,13.60
2014,06,08,07,35,13.70
2014,06,08,07,36,13.70
2014,06,08,07,37,13.70
2014,06,08,07,38,13.70
2014,06,08,07,39,13.80
2014,06,08,07,40,13.80
2014,06,08,07,41,13.80
2014,06,08,07,42,13.80
2014,06,08,07,43,13.90
2014,06,08,07,44,13.90
2014,06,08,07,45,13.90
2014,06,08,07,46,13.90
2014,06,08,07,47,14.00
2014,06,08,07,48,14.00
2014,06,08,07,49,14.00
2014,06,08,07,50,14.10
2014,06,08,07,51,14.10
2014,06,08,07,52,14.10
2014,06,08,07,53,14.20
2014,06,08,07,54,14.20
2014,06,08,07,55,14.20
2014,06,08,07,56,14.30
2014,06,08,07,57,14.30
2014,06,08,07,58,14.40
2014,06,08,07,59,14.40
2014,06,08,08,00,14.50
2014,06,08,08,01,14.50
2014,06,08,08,02,14.60
2014,06,08,08,03,14.60
2014,06,08,08,04,14.60
2014,06,08,08,05,14.60
2014,06,08,08,06,14.60
2014,06,08,08,07,14.70
2014,06,08,08,08,14.70
2014,06,08,08,09,14.70
2014,06,08,08,10,14.80
2014,06,08,08,11,14.80
2014,06,08,08,12,14.80
2014,06,08,08,13,14.90
2014,06,08,08,14,14.90
2014,06,08,08,15,14.90
2014,06,08,08,16,15.00
2014,06,08,08,17,15.10
2014,06,08,08,18,15.20
2014,06,08,08,19,15.20
2014,06,08,08,20,15.30
2014,06,08,08,21,15.40
2014,06,08,08,22,15.50
2014,06,08,08,23,15.60
2014,06,08,08,24,15.70
2014,06,08,08,25,15.80
2014,06,08,08,26,15.90
2014,06,08,08,27,16.00
2014,06,08,08,28,16.10
2014,06,08,08,29,16.20
2014,06,08,08,30,16.20
2014,06,08,08,31,16.30
2014,06,08,08,32,16.40
2014,06,08,08,33,16.40
2014,06,08,08,34,16.50
2014,06,08,08,35,16.60
2014,06,08,08,36,16.60
2014,06,08,08,37,16.70
2014,06,08,08,38,16.70
2014,06,08,08,39,16.80
2014,06,08,08,40,16.80
2014,06,08,08,41,16.90
2014,06,08,08,42,16.90
2014,06,08,08,43,17.00
2014,06,08,08,44,16.90
2014,06,08,08,45,16.90
2014,06,08,08,46,16.90
2014,06,08,08,47,16.90
2014,06,08,08,48,16.90
2014,06,08,08,49,17.00
2014,06,08,08,50,17.10
2014,06,08,08,51,17.10
2014,06,08,08,52,17.10
2014,06,08,08,53,17.20
2014,06,08,08,54,17.20
2014,06,08,08,55,17.20
2014,06,08,08,56,17.30
2014,06,08,08,57,17.30
2014,06,08,08,58,17.30
2014,06,08,08,59,17.30
2014,06,08,09,00,17.30
2014,06,08,09,01,17.40
2014,06,08,09,02,17.40
2014,06,08,09,03,17.50
2014,06,08,09,04,17.50
2014,06,08,09,05,17.60
2014,06,08,09,06,17.60
2014,06,08,09,07,17.70
2014,06,08,09,08,17.80
2014,06,08,09,09,17.80
2014,06,08,09,10,17.90
2014,06,08,09,11,17.90
2014,06,08,09,12,18.00
2014,06,08,09,13,18.00
2014,06,08,09,14,18.10
2014,06,08,09,15,18.20
2014,06,08,09,16,18.20
2014,06,08,09,17,18.30
2014,06,08,09,18,18.30
2014,06,08,09,19,18.30
2014,06,08,09,20,18.40
2014,06,08,09,21,18.40
2014,06,08,09,22,18.50
2014,06,08,09,23,18.50
2014,06,08,09,24,18.60
2014,06,08,09,25,18.70
2014,06,08,09,26,18.70
2014,06,08,09,27,18.80
2014,06,08,09,28,18.80
2014,06,08,09,29,18.90
2014,06,08,09,30,18.90
2014,06,08,09,31,19.00
2014,06,08,09,32,19.10
2014,06,08,09,33,19.10
2014,06,08,09,34,19.20
2014,06,08,09,35,19.20
2014,06,08,09,36,19.30
2014,06,08,09,37,19.30
2014,06,08,09,38,19.30
2014,06,08,09,39,19.30
2014,06,08,09,40,19.40
2014,06,08,09,41,19.40
2014,06,08,09,42,19.40
2014,06,08,09,43,19.40
2014,06,08,09,44,19.40
2014,06,08,09,45,19.30
2014,06,08,09,46,19.30
2014,06,08,09,47,19.20
2014,06,08,09,48,19.20
2014,06,08,09,49,19.20
2014,06,08,09,50,19.20
2014,06,08,09,51,19.20
2014,06,08,09,52,19.20
2014,06,08,09,53,19.20
2014,06,08,09,54,19.20
2014,06,08,09,55,19.30
2014,06,08,09,56,19.20
2014,06,08,09,57,19.20
2014,06,08,09,58,19.10
2014,06,08,09,59,19.10
2014,06,08,10,00,19.10
2014,06,08,10,01,19.20
2014,06,08,10,02,19.20
2014,06,08,10,03,19.30
2014,06,08,10,04,19.40
2014,06,08,10,05,19.40
2014,06,08,10,06,19.60
2014,06,08,10,07,19.70
2014,06,08,10,08,19.70
2014,06,08,10,09,19.70
2014,06,08,10,10,19.70
2014,06,08,10,11,19.70
2014,06,08,10,12,19.80
2014,06,08,10,13,19.80
2014,06,08,10,14,19.80
2014,06,08,10,15,19.80
2014,06,08,10,16,19.70
2014,06,08,10,17,19.70
2014,06,08,10,18,19.80
2014,06,08,10,19,19.80
2014,06,08,10,20,19.90
2014,06,08,10,21,19.90
2014,06,08,10,22,19.90
2014,06,08,10,23,19.90
2014,06,08,10,24,19.90
2014,06,08,10,25,19.80
2014,06,08,10,26,19.80
2014,06,08,10,27,19.80
2014,06,08,10,28,19.80
2014,06,08,10,29,19.80
2014,06,08,10,30,19.80
2014,06,08,10,31,19.90
2014,06,08,10,32,19.90
2014,06,08,10,33,20.00
2014,06,08,10,34,20.10
2014,06,08,10,35,20.10
2014,06,08,10,36,20.20
2014,06,08,10,37,20.20
2014,06,08,10,38,20.30
2014,06,08,10,39,20.40
2014,06,08,10,40,20.50
2014,06,08,10,41,20.50
2014,06,08,10,42,20.50
2014,06,08,10,43,20.50
2014,06,08,10,44,20.40
2014,06,08,10,45,20.40
2014,06,08,10,46,20.30
2014,06,08,10,47,20.30
2014,06,08,10,48,20.30
2014,06,08,10,49,20.30
2014,06,08,10,50,20.30
2014,06,08,10,51,20.30
2014,06,08,10,52,20.30
2014,06,08,10,53,20.30
2014,06,08,10,54,20.30
2014,06,08,10,55,20.30
2014,06,08,10,56,20.40
2014,06,08,10,57,20.40
2014,06,08,10,58,20.50
2014,06,08,10,59,20.50
2014,06,08,11,00,20.50
2014,06,08,11,01,20.60
2014,06,08,11,02,20.60
2014,06,08,11,03,20.60
2014,06,08,11,04,20.60
2014,06,08,11,05,20.60
2014,06,08,11,06,20.70
2014,06,08,11,07,20.70
2014,06,08,11,08,20.80
2014,06,08,11,09,20.80
2014,06,08,11,10,20.70
2014,06,08,11,11,20.80
2014,06,08,11,12,20.80
2014,06,08,11,13,20.80
2014,06,08,11,14,20.90
2014,06,08,11,15,20.90
2014,06,08,11,16,21.00
2014,06,08,11,17,21.00
2014,06,08,11,18,20.90
2014,06,08,11,19,20.90
2014,06,08,11,20,20.90
2014,06,08,11,21,20.90
2014,06,08,11,22,20.90
2014,06,08,11,23,21.00
2014,06,08,11,24,21.00
2014,06,08,11,25,21.00
2014,06,08,11,26,21.10
2014,06,08,11,27,21.10
2014,06,08,11,28,21.10
2014,06,08,11,29,21.10
2014,06,08,11,30,21.10
2014,06,08,11,31,21.00
2014,06,08,11,32,21.00
2014,06,08,11,33,21.00
2014,06,08,11,34,21.00
2014,06,08,11,35,21.10
2014,06,08,11,36,21.10
2014,06,08,11,37,21.20
2014,06,08,11,38,21.20
2014,06,08,11,39,21.30
2014,06,08,11,40,21.30
2014,06,08,11,41,21.40
2014,06,08,11,42,21.40
2014,06,08,11,43,21.50
2014,06,08,11,44,21.50
2014,06,08,11,45,21.60
2014,06,08,11,46,21.70
2014,06,08,11,47,21.70
2014,06,08,11,48,21.80
2014,06,08,11,49,21.80
2014,06,08,11,50,21.90
2014,06,08,11,51,22.10
2014,06,08,11,52,22.20
2014,06,08,11,53,22.30
2014,06,08,11,54,22.30
2014,06,08,11,55,22.40
2014,06,08,11,56,22.40
2014,06,08,11,57,22.40
2014,06,08,11,58,22.40
2014,06,08,11,59,22.30
2014,06,08,12,00,22.20
2014,06,08,12,01,22.20
2014,06,08,12,02,22.10
2014,06,08,12,03,22.10
2014,06,08,12,04,22.00
2014,06,08,12,05,22.00
2014,06,08,12,06,22.00
2014,06,08,12,07,21.90
2014,06,08,12,08,21.90
2014,06,08,12,09,21.70
2014,06,08,12,10,21.60
2014,06,08,12,11,21.50
2014,06,08,12,12,21.40
2014,06,08,12,13,21.40
2014,06,08,12,14,21.50
2014,06,08,12,15,21.60
2014,06,08,12,16,21.70
2014,06,08,12,17,21.60
2014,06,08,12,18,21.60
2014,06,08,12,19,21.60
2014,06,08,12,20,21.50
2014,06,08,12,21,21.50
2014,06,08,12,22,21.40
2014,06,08,12,23,21.40
2014,06,08,12,24,21.40
2014,06,08,12,25,21.30
2014,06,08,12,26,21.30
2014,06,08,12,27,21.30
2014,06,08,12,28,21.30
2014,06,08,12,29,21.30
2014,06,08,12,30,21.40
2014,06,08,12,31,21.50
2014,06,08,12,32,21.60
2014,06,08,12,33,21.60
2014,06,08,12,34,21.60
2014,06,08,12,35,21.60
2014,06,08,12,36,21.70
2014,06,08,12,37,21.70
2014,06,08,12,38,21.60
2014,06,08,12,39,21.50
2014,06,08,12,40,21.40
2014,06,08,12,41,21.40
2014,06,08,12,42,21.30
2014,06,08,12,43,21.30
2014,06,08,12,44,21.20
2014,06,08,12,45,21.20
2014,06,08,12,46,21.20
2014,06,08,12,47,21.20
2014,06,08,12,48,21.20
2014,06,08,12,49,21.20
2014,06,08,12,50,21.20
2014,06,08,12,51,21.10
2014,06,08,12,52,21.10
2014,06,08,12,53,21.10
2014,06,08,12,54,21.10
2014,06,08,12,55,21.10
2014,06,08,12,56,21.20
2014,06,08,12,57,21.30
2014,06,08,12,58,21.30
2014,06,08,12,59,21.30
2014,06,08,13,00,21.30
2014,06,08,13,01,21.30
2014,06,08,13,02,21.30
2014,06,08,13,03,21.20
2014,06,08,13,04,21.20
2014,06,08,13,05,21.20
2014,06,08,13,06,21.20
2014,06,08,13,07,21.30
2014,06,08,13,08,21.30
2014,06,08,13,09,21.40
2014,06,08,13,10,21.50
2014,06,08,13,11,21.60
2014,06,08,13,12,21.60
2014,06,08,13,13,21.70
2014,06,08,13,14,21.70
2014,06,08,13,15,21.80
2014,06,08,13,16,21.70
2014,06,08,13,17,21.70
2014,06,08,13,18,21.60
2014,06,08,13,19,21.60
2014,06,08,13,20,21.50
2014,06,08,13,21,21.50
2014,06,08,13,22,21.40
2014,06,08,13,23,21.40
2014,06,08,13,24,21.30
2014,06,08,13,25,21.30
2014,06,08,13,26,21.30
2014,06,08,13,27,21.30
2014,06,08,13,28,21.30
2014,06,08,13,29,21.40
2014,06,08,13,30,21.50
2014,06,08,13,31,21.50
2014,06,08,13,32,21.60
2014,06,08,13,33,21.60
2014,06,08,13,34,21.70
2014,06,08,13,35,21.60
2014,06,08,13,36,21.60
2014,06,08,13,37,21.50
2014,06,08,13,38,21.40
2014,06,08,13,39,21.30
2014,06,08,13,40,21.30
2014,06,08,13,41,21.20
2014,06,08,13,42,21.10
2014,06,08,13,43,21.10
2014,06,08,13,44,21.00
2014,06,08,13,45,21.00
2014,06,08,13,46,21.00
2014,06,08,13,47,21.10
2014,06,08,13,48,21.10
2014,06,08,13,49,21.10
2014,06,08,13,50,21.10
2014,06,08,13,51,21.20
2014,06,08,13,52,21.20
2014,06,08,13,53,21.20
2014,06,08,13,54,21.20
2014,06,08,13,55,21.20
2014,06,08,13,56,21.20
2014,06,08,13,57,21.30
2014,06,08,13,58,21.30
2014,06,08,13,59,21.30
2014,06,08,14,00,21.30
2014,06,08,14,01,21.30
2014,06,08,14,02,21.30
2014,06,08,14,03,21.30
2014,06,08,14,04,21.30
2014,06,08,14,05,21.30
2014,06,08,14,06,21.30
2014,06,08,14,07,21.30
2014,06,08,14,08,21.30
2014,06,08,14,09,21.20
2014,06,08,14,10,21.10
2014,06,08,14,11,21.10
2014,06,08,14,12,21.00
2014,06,08,14,13,21.00
2014,06,08,14,14,20.80
2014,06,08,14,15,20.70
2014,06,08,14,16,20.60
2014,06,08,14,17,20.60
2014,06,08,14,18,20.60
2014,06,08,14,19,20.60
2014,06,08,14,20,20.70
2014,06,08,14,21,20.70
2014,06,08,14,22,20.70
2014,06,08,14,23,20.70
2014,06,08,14,24,20.70
2014,06,08,14,25,20.80
2014,06,08,14,26,20.80
2014,06,08,14,27,20.70
2014,06,08,14,28,20.70
2014,06,08,14,29,20.70
2014,06,08,14,30,20.70
2014,06,08,14,31,20.60
2014,06,08,14,32,20.60
2014,06,08,14,33,20.60
2014,06,08,14,34,20.50
2014,06,08,14,35,20.50
2014,06,08,14,36,20.50
2014,06,08,14,37,20.50
2014,06,08,14,38,20.50
2014,06,08,14,39,20.50
2014,06,08,14,40,20.50
2014,06,08,14,41,20.50
2014,06,08,14,42,20.40
2014,06,08,14,43,20.40
2014,06,08,14,44,20.40
2014,06,08,14,45,20.50
2014,06,08,14,46,20.50
2014,06,08,14,47,20.60
2014,06,08,14,48,20.60
2014,06,08,14,49,20.70
2014,06,08,14,50,20.70
2014,06,08,14,51,20.70
2014,06,08,14,52,20.70
2014,06,08,14,53,20.70
2014,06,08,14,54,20.80
2014,06,08,14,55,20.80
2014,06,08,14,56,20.80
2014,06,08,14,57,20.80
2014,06,08,14,58,20.70
2014,06,08,14,59,20.70
2014,06,08,15,00,20.70
2014,06,08,15,01,20.70
2014,06,08,15,02,20.70
2014,06,08,15,03,20.70
2014,06,08,15,04,20.70
2014,06,08,15,05,20.70
2014,06,08,15,06,20.70
2014,06,08,15,07,20.60
2014,06,08,15,08,20.60
2014,06,08,15,09,20.70
2014,06,08,15,10,20.70
2014,06,08,15,11,20.80
2014,06,08,15,12,20.80
2014,06,08,15,13,20.90
2014,06,08,15,14,21.00
2014,06,08,15,15,21.10
2014,06,08,15,16,21.10
2014,06,08,15,17,21.20
2014,06,08,15,18,21.30
2014,06,08,15,19,21.40
2014,06,08,15,20,21.50
2014,06,08,15,21,21.60
2014,06,08,15,22,21.80
2014,06,08,15,23,21.90
2014,06,08,15,24,22.10
2014,06,08,15,25,22.30
2014,06,08,15,26,22.50
2014,06,08,15,27,22.60
2014,06,08,15,28,22.80
2014,06,08,15,29,23.00
2014,06,08,15,30,23.20
2014,06,08,15,31,23.50
2014,06,08,15,32,23.70
2014,06,08,15,33,24.00
2014,06,08,15,34,24.20
2014,06,08,15,35,24.40
2014,06,08,15,36,24.50
2014,06,08,15,37,24.60
2014,06,08,15,38,24.60
2014,06,08,15,39,24.60
2014,06,08,15,40,24.60
2014,06,08,15,41,24.60
2014,06,08,15,42,24.60
2014,06,08,15,43,24.50
2014,06,08,15,44,24.50
2014,06,08,15,45,24.40
2014,06,08,15,46,24.40
2014,06,08,15,47,24.40
2014,06,08,15,48,24.40
2014,06,08,15,49,24.40
2014,06,08,15,50,24.40
2014,06,08,15,51,24.30
2014,06,08,15,52,24.40
2014,06,08,15,53,24.40
2014,06,08,15,54,24.40
2014,06,08,15,55,24.40
2014,06,08,15,56,24.50
2014,06,08,15,57,24.50
2014,06,08,15,58,24.60
2014,06,08,15,59,24.50
2014,06,08,16,00,24.40
2014,06,08,16,01,24.40
2014,06,08,16,02,24.40
2014,06,08,16,03,24.50
2014,06,08,16,04,24.60
2014,06,08,16,05,24.60
2014,06,08,16,06,24.60
2014,06,08,16,07,24.70
2014,06,08,16,08,24.80
2014,06,08,16,09,24.90
2014,06,08,16,10,25.00
2014,06,08,16,11,25.00
2014,06,08,16,12,25.10
2014,06,08,16,13,25.10
2014,06,08,16,14,25.00
2014,06,08,16,15,25.00
2014,06,08,16,16,24.90
2014,06,08,16,17,24.90
2014,06,08,16,18,24.90
2014,06,08,16,19,25.00
2014,06,08,16,20,25.10
2014,06,08,16,21,25.10
2014,06,08,16,22,25.10
2014,06,08,16,23,25.00
2014,06,08,16,24,25.00
2014,06,08,16,25,25.00
2014,06,08,16,26,24.90
2014,06,08,16,27,24.80
2014,06,08,16,28,24.70
2014,06,08,16,29,24.60
2014,06,08,16,30,24.50
2014,06,08,16,31,24.50
2014,06,08,16,32,24.50
2014,06,08,16,33,24.60
2014,06,08,16,34,24.60
2014,06,08,16,35,24.60
2014,06,08,16,36,24.60
2014,06,08,16,37,24.50
2014,06,08,16,38,24.50
2014,06,08,16,39,24.40
2014,06,08,16,40,24.50
2014,06,08,16,41,24.50
2014,06,08,16,42,24.50
2014,06,08,16,43,24.40
2014,06,08,16,44,24.40
2014,06,08,16,45,24.30
2014,06,08,16,46,24.20
2014,06,08,16,47,24.10
2014,06,08,16,48,24.00
2014,06,08,16,49,23.90
2014,06,08,16,50,23.80
2014,06,08,16,51,23.70
2014,06,08,16,52,23.70
2014,06,08,16,53,23.70
2014,06,08,16,54,23.60
2014,06,08,16,55,23.60
2014,06,08,16,56,23.60
2014,06,08,16,57,23.60
2014,06,08,16,58,23.50
2014,06,08,16,59,23.50
2014,06,08,17,00,23.50
2014,06,08,17,01,23.60
2014,06,08,17,02,23.70
2014,06,08,17,03,23.70
2014,06,08,17,04,23.70
2014,06,08,17,05,23.60
2014,06,08,17,06,23.60
2014,06,08,17,07,23.60
2014,06,08,17,08,23.60
2014,06,08,17,09,23.60
2014,06,08,17,10,23.70
2014,06,08,17,11,23.70
2014,06,08,17,12,23.70
2014,06,08,17,13,23.60
2014,06,08,17,14,23.60
2014,06,08,17,15,23.60
2014,06,08,17,16,23.50
2014,06,08,17,17,23.50
2014,06,08,17,18,23.40
2014,06,08,17,19,23.40
2014,06,08,17,20,23.40